DLH245 OMDB-OTHH

Flight info

Callsign DLH245
Flight time N/A
Altitude 38000
Route NABIX3F NABIX P699 OXARI M430 TOSNA TOSNA2F
Aircraft A340/H-SADE1E2E3GHIJ1J3J5M1P2RWXY/LB1

Departure

Time 2026-04-20 12:11
Airport Dubai International Airport (OMDB)

Arrival

Time N/A
Airport Hamad International Airport (OTHH)
Time Latitude Longitude Altitude Speed Heading
2026-04-20 11:49 25.25722 55.37929 28 ft 0 kts 30°
2026-04-20 11:50 25.25723 55.37929 30 ft 0 kts 30°
2026-04-20 11:58 25.25710 55.37921 30 ft 3 kts 30°
2026-04-20 11:58 25.25694 55.37911 30 ft 3 kts 30°
2026-04-20 11:58 25.25678 55.37901 30 ft 3 kts 30°
2026-04-20 11:59 25.25662 55.37891 30 ft 3 kts 30°
2026-04-20 11:59 25.25646 55.37881 30 ft 3 kts 30°
2026-04-20 11:59 25.25631 55.37871 30 ft 3 kts 30°
2026-04-20 11:59 25.25615 55.37861 30 ft 3 kts 30°
2026-04-20 12:00 25.25599 55.37851 30 ft 3 kts 30°
2026-04-20 12:00 25.25584 55.37841 30 ft 3 kts 30°
2026-04-20 12:00 25.25569 55.37831 30 ft 2 kts 30°
2026-04-20 12:00 25.25554 55.37822 30 ft 2 kts 30°
2026-04-20 12:01 25.25539 55.37812 30 ft 2 kts 30°
2026-04-20 12:01 25.25524 55.37803 30 ft 2 kts 30°
2026-04-20 12:01 25.25509 55.37793 30 ft 2 kts 30°
2026-04-20 12:01 25.25494 55.37784 30 ft 2 kts 30°
2026-04-20 12:02 25.25479 55.37774 30 ft 2 kts 30°
2026-04-20 12:02 25.25465 55.37765 30 ft 2 kts 30°
2026-04-20 12:02 25.25450 55.37756 30 ft 2 kts 30°
2026-04-20 12:02 25.25435 55.37746 30 ft 2 kts 30°
2026-04-20 12:03 25.25420 55.37737 30 ft 2 kts 30°
2026-04-20 12:03 25.25405 55.37727 30 ft 2 kts 30°
2026-04-20 12:03 25.25390 55.37718 30 ft 2 kts 30°
2026-04-20 12:03 25.25375 55.37708 30 ft 2 kts 30°
2026-04-20 12:04 25.25360 55.37699 30 ft 2 kts 30°
2026-04-20 12:04 25.25345 55.37689 30 ft 2 kts 30°
2026-04-20 12:04 25.25329 55.37679 30 ft 3 kts 19°
2026-04-20 12:04 25.25312 55.37673 28 ft 3 kts 30°
2026-04-20 12:05 25.25303 55.37667 30 ft 0 kts 35°
2026-04-20 12:05 25.25304 55.37671 30 ft 1 kts 57°
2026-04-20 12:06 25.25303 55.37677 30 ft 1 kts 84°
2026-04-20 12:06 25.25299 55.37681 24 ft 1 kts 109°
2026-04-20 12:06 25.25291 55.37695 29 ft 5 kts 122°
2026-04-20 12:06 25.25262 55.37747 28 ft 11 kts 121°
2026-04-20 12:07 25.25212 55.37838 29 ft 17 kts 121°
2026-04-20 12:07 25.25142 55.37965 29 ft 22 kts 121°
2026-04-20 12:07 25.25055 55.38116 29 ft 20 kts 122°
2026-04-20 12:07 25.25003 55.38169 29 ft 3 kts 191°
2026-04-20 12:08 25.24979 55.38157 27 ft 7 kts 205°
2026-04-20 12:08 25.24922 55.38121 29 ft 12 kts 212°
2026-04-20 12:08 25.24910 55.38113 28 ft 0 kts 212°
2026-04-20 12:08 25.24908 55.38111 27 ft 3 kts 212°
2026-04-20 12:09 25.24872 55.38087 28 ft 9 kts 212°
2026-04-20 12:09 25.24824 55.38021 29 ft 13 kts 268°
2026-04-20 12:09 25.24852 55.37938 28 ft 0 kts 301°
2026-04-20 12:10 25.24862 55.37920 28 ft 16 kts 301°
2026-04-20 12:10 25.25020 55.37636 28 ft 70 kts 301°
2026-04-20 12:10 25.25357 55.37032 29 ft 116 kts 302°
2026-04-20 12:11 25.25854 55.36141 29 ft 155 kts 301°
2026-04-20 12:11 25.26478 55.35017 28 ft 187 kts 301°
2026-04-20 12:11 25.27187 55.33726 245 ft 196 kts 300°
2026-04-20 12:11 25.27856 55.32458 802 ft 193 kts 300°
2026-04-20 12:12 25.28557 55.31143 1197 ft 202 kts 300°
2026-04-20 12:12 25.29289 55.29817 1736 ft 202 kts 301°
2026-04-20 12:12 25.30031 55.28505 2308 ft 204 kts 301°
2026-04-20 12:12 25.30835 55.27089 2461 ft 230 kts 301°
2026-04-20 12:13 25.31734 55.25509 2663 ft 255 kts 302°
2026-04-20 12:13 25.32672 55.23878 3361 ft 255 kts 302°
2026-04-20 12:13 25.33622 55.22216 4028 ft 257 kts 297°
2026-04-20 12:13 25.34076 55.20322 4557 ft 259 kts 261°
2026-04-20 12:14 25.33505 55.18512 5356 ft 246 kts 241°
2026-04-20 12:14 25.32644 55.16799 5581 ft 268 kts 243°
2026-04-20 12:14 25.31832 55.14929 6207 ft 264 kts 245°
2026-04-20 12:14 25.31043 55.13135 6969 ft 265 kts 243°
2026-04-20 12:15 25.30139 55.11253 7140 ft 283 kts 242°
2026-04-20 12:15 25.29231 55.09398 8160 ft 266 kts 242°
2026-04-20 12:15 25.28350 55.07568 8595 ft 279 kts 242°
2026-04-20 12:15 25.27424 55.05649 8902 ft 288 kts 242°
2026-04-20 12:16 25.26508 55.03760 9900 ft 273 kts 242°
2026-04-20 12:16 25.25585 55.01850 10015 ft 296 kts 242°
2026-04-20 12:16 25.24618 54.99760 10125 ft 314 kts 249°
2026-04-20 12:16 25.24152 54.97313 10099 ft 340 kts 267°
2026-04-20 12:17 25.24148 54.94596 10027 ft 369 kts 271°
2026-04-20 12:17 25.24227 54.91667 10070 ft 395 kts 271°
2026-04-20 12:17 25.24307 54.88519 10040 ft 423 kts 271°
2026-04-20 12:17 25.24409 54.85169 9994 ft 451 kts 272°
2026-04-20 12:18 25.24531 54.81662 10028 ft 474 kts 272°
2026-04-20 12:18 25.24664 54.77929 9982 ft 499 kts 272°
2026-04-20 12:18 25.24804 54.74020 10028 ft 519 kts 272°
2026-04-20 12:18 25.24953 54.69966 9976 ft 538 kts 272°
2026-04-20 12:19 25.25103 54.65820 9984 ft 540 kts 272°
2026-04-20 12:19 25.25252 54.61669 9968 ft 541 kts 272°
2026-04-20 12:19 25.25403 54.57523 9978 ft 540 kts 272°
2026-04-20 12:19 25.25557 54.53374 9969 ft 541 kts 272°
2026-04-20 12:20 25.25711 54.49226 9975 ft 541 kts 272°
2026-04-20 12:20 25.25860 54.45133 9972 ft 541 kts 272°
2026-04-20 12:20 25.26011 54.40983 10032 ft 540 kts 272°
2026-04-20 12:20 25.26165 54.36836 9993 ft 540 kts 272°
2026-04-20 12:21 25.26320 54.32692 10013 ft 541 kts 272°
2026-04-20 12:21 25.26472 54.28540 10040 ft 540 kts 272°
2026-04-20 12:21 25.26624 54.24393 10060 ft 541 kts 272°
2026-04-20 12:21 25.26779 54.20245 10018 ft 540 kts 272°
2026-04-20 12:22 25.26935 54.16098 9977 ft 541 kts 272°
2026-04-20 12:22 25.27086 54.12005 10061 ft 540 kts 272°
2026-04-20 12:22 25.27239 54.07858 10037 ft 541 kts 272°
2026-04-20 12:22 25.27396 54.03706 9995 ft 540 kts 272°
2026-04-20 12:23 25.27553 53.99560 9989 ft 541 kts 272°
2026-04-20 12:23 25.27708 53.95409 10022 ft 540 kts 272°
2026-04-20 12:23 25.27862 53.91259 10034 ft 540 kts 272°
2026-04-20 12:23 25.28018 53.87125 10028 ft 536 kts 272°
2026-04-20 12:24 25.28174 53.83045 10044 ft 526 kts 272°
2026-04-20 12:24 25.28323 53.79069 10052 ft 508 kts 272°
2026-04-20 12:24 25.28467 53.75225 10046 ft 494 kts 272°
2026-04-20 12:24 25.28611 53.71477 10047 ft 482 kts 272°